Pardubice, Czech Republic

6:28 AM CEST on May 25, 2017 (GMT +0200)
Pardubice

Weather History for LKPD - February, 2013

Change the Weather History Date:

Thursday, February 21, 2013

  Actual Average Record
Temperature  
Mean Temperature 20 °F -  
Max Temperature 28 °F - - ()
Min Temperature 12 °F - - ()
Degree Days  
Heating Degree Days 45    
Moisture  
Dew Point 18 °F    
Average Humidity 85    
Maximum Humidity 100    
Minimum Humidity 59    
Precipitation  
Precipitation 0.00 in - - ()
Sea Level Pressure  
Sea Level Pressure 30.08 in    
Wind  
Wind Speed 1 mph ()    
Max Wind Speed 7 mph    
Max Gust Speed -    
Visibility 3.6 miles    
Events Fog , Snow    
T = Trace of Precipitation, MM = Missing Value Source: Averaged Metar Reports

Daily Weather History Graph

Daily Weather History Graph

Search for Another Location

Airport or City:

Trip Planner

Search our weather history database for the weather conditions in past years. The results will help you decide how hot, cold, wet, or windy it might be!

Date:

Astronomy

Feb. 21, 2013 Rise Set
Actual Time 6:56 AM CET 5:25 PM CET
Civil Twilight 6:23 AM CET 5:58 PM CET
Nautical Twilight 5:45 AM CET 6:36 PM CET
Astronomical Twilight 5:08 AM CET 7:13 PM CET
Moon 1:08 PM CET (2/21) 4:05 AM CET (2/21)
Length of Visible Light 11h 35m
Length of Day
10h 29m
Waxing Gibbous, 82% of the Moon is Illuminated
Feb 21
Waxing Gibbous
Feb 25
Full
Mar 4
Last Quarter
Mar 11
New
Mar 19
First Quarter

Hourly Weather History & Observations

Time (CET) Temp. Windchill Dew Point Humidity Pressure Visibility Wind Dir Wind Speed Gust Speed Precip Events Conditions
12:00 AM 24.8 °F - 23.0 °F 93% 30.09 in 1.9 mi Calm Calm - N/A Snow Snow
1:00 AM 24.8 °F - 23.0 °F 93% 30.09 in 1.2 mi Calm Calm - N/A Snow Snow
2:00 AM 23.0 °F 18.4 °F 21.2 °F 93% 30.09 in 1.9 mi West 3.5 mph - N/A Snow Light Snow
3:00 AM 23.0 °F 17.0 °F 21.2 °F 93% 30.09 in 2.5 mi WSW 4.6 mph - N/A Snow Light Snow
3:12 AM 23.0 °F - 21.2 °F 93% 30.09 in 3.1 mi Variable 2.3 mph - N/A   Mostly Cloudy
4:27 AM 21.2 °F - 19.4 °F 93% 30.09 in 1.2 mi Variable 1.2 mph - N/A   Mostly Cloudy
4:39 AM 19.4 °F - 19.4 °F 100% 30.09 in 0.6 mi WSW 1.2 mph - N/A   Mostly Cloudy
4:43 AM 19.4 °F - 17.6 °F 93% 30.09 in 0.4 mi Variable 1.2 mph - N/A Fog Light Freezing Fog
5:00 AM 17.6 °F - 15.8 °F 93% 30.09 in 0.2 mi Calm Calm - N/A Fog Light Freezing Fog
6:00 AM 12.2 °F - 10.4 °F 92% 30.09 in 0.2 mi Calm Calm - N/A Fog Light Freezing Fog
6:22 AM 14.0 °F - 12.2 °F 93% 30.09 in 0.6 mi Variable 1.2 mph - N/A   Mostly Cloudy
6:26 AM 14.0 °F - 12.2 °F 93% 30.09 in 1.2 mi Calm Calm - N/A   Mostly Cloudy
6:31 AM 15.8 °F - 12.2 °F 86% 30.09 in 2.5 mi Calm Calm - N/A   Mostly Cloudy
7:00 AM 17.6 °F - 14.0 °F 86% 30.09 in 2.5 mi Calm Calm - N/A   Mostly Cloudy
7:19 AM 17.6 °F - 15.8 °F 93% 30.09 in 3.7 mi Calm Calm - N/A Snow Light Snow
7:43 AM 17.6 °F - 15.8 °F 93% 30.09 in 2.5 mi Calm Calm - N/A Snow Light Snow
8:00 AM 19.4 °F - 17.6 °F 93% 30.09 in 2.5 mi Calm Calm - N/A Snow Light Snow
8:18 AM 19.4 °F - 17.6 °F 93% 30.09 in 3.7 mi WSW 1.2 mph - N/A Snow Light Snow
8:32 AM 21.2 °F - 19.4 °F 93% 30.09 in 5.0 mi WSW 1.2 mph - N/A Snow Light Snow
9:00 AM 21.2 °F - 19.4 °F 93% 30.09 in 6.2 mi West 1.2 mph - N/A Snow Light Snow
11:00 AM 24.8 °F - 17.6 °F 74% 30.12 in 6.2 mi SSW 2.3 mph - N/A   Mostly Cloudy
12:00 PM 28.4 °F - 15.8 °F 59% 30.09 in 6.2 mi Variable 2.3 mph - N/A   Mostly Cloudy
1:00 PM 26.6 °F 22.6 °F 17.6 °F 69% 30.09 in 6.2 mi SW 3.5 mph - N/A   Mostly Cloudy
2:00 PM 26.6 °F - 17.6 °F 69% 30.06 in 6.2 mi Variable 1.2 mph - N/A Snow Light Snow
3:00 PM 26.6 °F - 19.4 °F 74% 30.06 in 3.7 mi Calm Calm - N/A Snow Light Snow
3:07 PM 24.8 °F - 19.4 °F 80% 30.06 in 2.5 mi Calm Calm - N/A Snow Light Snow
4:00 PM 24.8 °F - 21.2 °F 86% 30.06 in 3.1 mi Calm Calm - N/A Snow Light Snow
5:00 PM 24.8 °F - 21.2 °F 86% 30.06 in 5.0 mi SW 1.2 mph - N/A Snow Light Snow
5:23 PM 24.8 °F - 21.2 °F 86% 30.06 in 6.2 mi Calm Calm - N/A Snow Light Snow
6:00 PM 24.8 °F - 19.4 °F 80% 30.06 in 6.2 mi West 2.3 mph - N/A Snow Light Snow
7:00 PM 24.8 °F 20.5 °F 19.4 °F 80% 30.06 in 6.2 mi NE 3.5 mph - N/A Snow Light Snow
8:00 PM 24.8 °F 19.1 °F 15.8 °F 69% 30.06 in 6.2 mi NE 4.6 mph - N/A Snow Light Snow
9:00 PM 23.0 °F 15.8 °F 14.0 °F 68% 30.06 in 6.2 mi NE 5.8 mph - N/A Snow Light Snow
10:00 PM 21.2 °F 12.6 °F 14.0 °F 74% 30.06 in 6.2 mi NNE 6.9 mph - N/A   Overcast
11:00 PM 19.4 °F - 14.0 °F 80% 30.06 in 6.2 mi Variable 1.2 mph - N/A   Mostly Cloudy